"Sample Date","Sample Time","Sample Value","Units","Flow Rate","Sample Interval","Number Channels","Micron Size 0","Counts/Channel 0","Micron Size 1","Counts/Channel 1","Micron Size 2","Counts/Channel 2","Micron Size 3","Counts/Channel 3","Micron Size 4","Counts/Channel 4","Micron Size 5","Counts/Channel 5","Micron Size 6","Counts/Channel 6","Micron Size 7","Counts/Channel 7","Micron Size 8","Counts/Channel 8","Micron Size 9","Counts/Channel 9","Micron Size 10","Counts/Channel 10","Micron Size 11","Counts/Channel 11","Micron Size 12","Counts/Channel 12","Micron Size 13","Counts/Channel 13","Micron Size 14","Counts/Channel 14","Micron Size 15","Counts/Channel 15","Micron Size 16","Counts/Channel 16","Micron Size 17","Counts/Channel 17","Micron Size 18","Counts/Channel 18","Micron Size 19","Counts/Channel 19","Micron Size 20","Counts/Channel 20","Micron Size 21","Counts/Channel 21","Micron Size 22","Counts/Channel 22","Micron Size 23","Counts/Channel 23","Micron Size 24","Counts/Channel 24","Micron Size 25","Counts/Channel 25","Micron Size 26","Counts/Channel 26","Micron Size 27","Counts/Channel 27","Micron Size 28","Counts/Channel 28","Micron Size 29","Counts/Channel 29","Micron Size 30","Counts/Channel 30","Micron Size 31","Counts/Channel 31"
"03/06/08","21:00:02",142603.000,"cc",28276.895,6.00,6,0.100,127184.000,0.200,12935.000,0.300,1311.000,0.500,918.000,1.000,255.000,5.000,0
"03/06/08","21:00:08",137338.000,"cc",28327.627,6.00,6,0.100,122373.000,0.200,12658.000,0.300,1266.000,0.500,847.000,1.000,194.000,5.000,0
"03/06/08","21:00:14",152430.000,"cc",28306.303,6.00,6,0.100,136098.000,0.200,13989.000,0.300,1350.000,0.500,774.000,1.000,219.000,5.000,0
"03/06/08","21:00:20",102585.000,"cc",28347.783,6.00,6,0.100,91540.000,0.200,8821.000,0.300,1171.000,0.500,861.000,1.000,192.000,5.000,0
"03/06/08","21:00:26",145431.000,"cc",28327.865,6.00,6,0.100,129531.000,0.200,13423.000,0.300,1342.000,0.500,898.000,1.000,237.000,5.000,0
"03/06/08","21:00:32",91215.000,"cc",28326.514,6.00,6,0.100,81220.000,0.200,7793.000,0.300,1153.000,0.500,832.000,1.000,217.000,5.000,0
"03/06/08","21:00:38",104132.000,"cc",28313.041,6.00,6,0.100,92797.000,0.200,9092.000,0.300,1161.000,0.500,861.000,1.000,221.000,5.000,0
"03/06/08","21:00:44",203350.000,"cc",28330.857,6.00,6,0.100,180675.000,0.200,20038.000,0.300,1550.000,0.500,857.000,1.000,230.000,5.000,0
"03/06/08","21:00:50",185810.000,"cc",28273.402,6.00,6,0.100,164927.000,0.200,18315.000,0.300,1447.000,0.500,894.000,1.000,227.000,5.000,0
"03/06/08","21:00:56",242987.000,"cc",28333.523,6.00,6,0.100,214645.000,0.200,25489.000,0.300,1729.000,0.500,911.000,1.000,213.000,5.000,0
"03/06/08","21:01:02",186303.000,"cc",28335.465,6.00,6,0.100,166095.000,0.200,17742.000,0.300,1383.000,0.500,850.000,1.000,233.000,5.000,0
"03/06/08","21:01:08",206466.000,"cc",28269.164,6.00,6,0.100,183302.000,0.200,20282.000,0.300,1661.000,0.500,965.000,1.000,256.000,5.000,0
"03/06/08","21:01:14",268050.000,"cc",28338.043,6.00,6,0.100,235744.000,0.200,29246.000,0.300,1888.000,0.500,928.000,1.000,244.000,5.000,0
"03/06/08","21:01:20",263692.000,"cc",28331.863,6.00,6,0.100,232406.000,0.200,28139.000,0.300,1900.000,0.500,970.000,1.000,277.000,5.000,0
"03/06/08","21:01:26",301178.000,"cc",28364.506,6.00,6,0.100,264458.000,0.200,33365.000,0.300,2057.000,0.500,1025.000,1.000,273.000,5.000,0
"03/06/08","21:01:32",186031.000,"cc",28293.758,6.00,6,0.100,164997.000,0.200,18457.000,0.300,1450.000,0.500,904.000,1.000,223.000,5.000,0
"03/06/08","21:01:38",188372.000,"cc",28324.438,6.00,6,0.100,166914.000,0.200,18921.000,0.300,1421.000,0.500,894.000,1.000,222.000,5.000,0
"03/06/08","21:01:44",362987.000,"cc",28352.022,6.00,6,0.100,315205.000,0.200,44125.000,0.300,2444.000,0.500,944.000,1.000,269.000,5.000,0
"03/06/08","21:01:50",281153.000,"cc",28299.912,6.00,6,0.100,247576.000,0.200,30167.000,0.300,1989.000,0.500,1101.000,1.000,320.000,5.000,0
"03/06/08","21:01:56",253310.000,"cc",28291.549,6.00,6,0.100,223169.000,0.200,26814.000,0.300,1927.000,0.500,1098.000,1.000,302.000,5.000,0
"03/06/08","21:02:02",221079.000,"cc",28382.275,6.00,6,0.100,195663.000,0.200,22356.000,0.300,1728.000,0.500,1041.000,1.000,291.000,5.000,0
"03/06/08","21:02:08",185483.000,"cc",28276.416,6.00,6,0.100,164264.000,0.200,18233.000,0.300,1647.000,0.500,1062.000,1.000,277.000,5.000,0
"03/06/08","21:02:14",153865.000,"cc",28324.555,6.00,6,0.100,136692.000,0.200,14376.000,0.300,1467.000,0.500,1050.000,1.000,280.000,5.000,0
"03/06/08","21:02:20",150496.000,"cc",28327.418,6.00,6,0.100,133384.000,0.200,14471.000,0.300,1482.000,0.500,888.000,1.000,271.000,5.000,0
"03/06/08","21:02:26",155438.000,"cc",28344.813,6.00,6,0.100,138170.000,0.200,14637.000,0.300,1454.000,0.500,878.000,1.000,299.000,5.000,0
"03/06/08","21:02:32",188544.000,"cc",28354.850,6.00,6,0.100,166831.000,0.200,18839.000,0.300,1650.000,0.500,971.000,1.000,253.000,5.000,0
"03/06/08","21:02:38",142648.000,"cc",28316.527,6.00,6,0.100,126192.000,0.200,13964.000,0.300,1352.000,0.500,909.000,1.000,231.000,5.000,0
"03/06/08","21:02:44",162333.000,"cc",28311.875,6.00,6,0.100,143942.000,0.200,15757.000,0.300,1488.000,0.500,888.000,1.000,258.000,5.000,0
"03/06/08","21:02:50",130639.000,"cc",28279.109,6.00,6,0.100,115607.000,0.200,12439.000,0.300,1378.000,0.500,934.000,1.000,281.000,5.000,0
"03/06/08","21:02:56",123913.000,"cc",28282.606,6.00,6,0.100,109555.000,0.200,11797.000,0.300,1355.000,0.500,957.000,1.000,249.000,5.000,0
"03/06/08","21:03:02",162458.000,"cc",28314.352,6.00,6,0.100,143562.000,0.200,16207.000,0.300,1507.000,0.500,918.000,1.000,264.000,5.000,0
"03/06/08","21:03:08",124147.000,"cc",28299.051,6.00,6,0.100,109587.000,0.200,11841.000,0.300,1434.000,0.500,987.000,1.000,298.000,5.000,0
"03/06/08","21:03:14",92938.000,"cc",28281.215,6.00,6,0.100,82135.000,0.200,8285.000,0.300,1255.000,0.500,985.000,1.000,278.000,5.000,0
"03/06/08","21:03:20",127295.000,"cc",28366.334,6.00,6,0.100,112699.000,0.200,11960.000,0.300,1402.000,0.500,950.000,1.000,284.000,5.000,0
"03/06/08","21:03:26",127542.000,"cc",28323.826,6.00,6,0.100,112624.000,0.200,12141.000,0.300,1434.000,0.500,1036.000,1.000,307.000,5.000,0
"03/06/08","21:03:32",132327.000,"cc",28294.322,6.00,6,0.100,117290.000,0.200,12340.000,0.300,1466.000,0.500,969.000,1.000,262.000,5.000,0
"03/06/08","21:03:38",133009.000,"cc",28260.250,6.00,6,0.100,117887.000,0.200,12497.000,0.300,1375.000,0.500,1006.000,1.000,244.000,5.000,0
"03/06/08","21:03:44",212590.000,"cc",28386.609,6.00,6,0.100,187585.000,0.200,21987.000,0.300,1702.000,0.500,1008.000,1.000,308.000,5.000,0
"03/06/08","21:03:50",159605.000,"cc",28322.568,6.00,6,0.100,141255.000,0.200,15629.000,0.300,1476.000,0.500,1002.000,1.000,243.000,5.000,0
"03/06/08","21:03:56",140146.000,"cc",28311.000,6.00,6,0.100,124307.000,0.200,13281.000,0.300,1412.000,0.500,917.000,1.000,229.000,5.000,0
"03/06/08","21:04:02",147436.000,"cc",28291.871,6.00,6,0.100,131011.000,0.200,14033.000,0.300,1339.000,0.500,832.000,1.000,221.000,5.000,0
"03/06/08","21:04:08",149711.000,"cc",28361.166,6.00,6,0.100,132057.000,0.200,15245.000,0.300,1304.000,0.500,873.000,1.000,232.000,5.000,0
"03/06/08","21:04:14",308753.000,"cc",28337.832,6.00,6,0.100,269214.000,0.200,36083.000,0.300,2180.000,0.500,1016.000,1.000,260.000,5.000,0
"03/06/08","21:04:20",236908.000,"cc",28339.078,6.00,6,0.100,198081.000,0.200,35295.000,0.300,2201.000,0.500,1045.000,1.000,286.000,5.000,0
"03/06/08","21:04:26",202715.000,"cc",28317.723,6.00,6,0.100,177924.000,0.200,21747.000,0.300,1706.000,0.500,1026.000,1.000,312.000,5.000,0
"03/06/08","21:04:32",177746.000,"cc",28319.141,6.00,6,0.100,157618.000,0.200,17378.000,0.300,1454.000,0.500,1044.000,1.000,252.000,5.000,0
"03/06/08","21:04:38",158981.000,"cc",28259.463,6.00,6,0.100,140846.000,0.200,15341.000,0.300,1503.000,0.500,1030.000,1.000,261.000,5.000,0
"03/06/08","21:04:44",151501.000,"cc",28319.410,6.00,6,0.100,134366.000,0.200,14346.000,0.300,1497.000,0.500,1017.000,1.000,275.000,5.000,0
"03/06/08","21:04:50",222832.000,"cc",28258.887,6.00,6,0.100,196907.000,0.200,22728.000,0.300,1814.000,0.500,1076.000,1.000,307.000,5.000,0
"03/06/08","21:04:56",175137.000,"cc",28373.613,6.00,6,0.100,155178.000,0.200,16940.000,0.300,1654.000,0.500,1076.000,1.000,289.000,5.000,0
"03/06/08","21:05:02",127065.000,"cc",28349.508,6.00,6,0.100,112658.000,0.200,11598.000,0.300,1444.000,0.500,1060.000,1.000,305.000,5.000,0
"03/06/08","21:05:08",180797.000,"cc",28303.045,6.00,6,0.100,159421.000,0.200,18186.000,0.300,1769.000,0.500,1111.000,1.000,310.000,5.000,0
"03/06/08","21:05:14",201758.000,"cc",28331.592,6.00,6,0.100,178209.000,0.200,20236.000,0.300,1846.000,0.500,1147.000,1.000,320.000,5.000,0
"03/06/08","21:05:20",149064.000,"cc",28298.930,6.00,6,0.100,132160.000,0.200,14058.000,0.300,1515.000,0.500,1046.000,1.000,285.000,5.000,0
"03/06/08","21:05:26",196509.000,"cc",28337.533,6.00,6,0.100,173511.000,0.200,19969.000,0.300,1767.000,0.500,992.000,1.000,270.000,5.000,0
"03/06/08","21:05:32",191816.000,"cc",28328.451,6.00,6,0.100,169324.000,0.200,19451.000,0.300,1692.000,0.500,1072.000,1.000,277.000,5.000,0
"03/06/08","21:05:38",191754.000,"cc",28318.672,6.00,6,0.100,169169.000,0.200,19444.000,0.300,1756.000,0.500,1097.000,1.000,288.000,5.000,0
"03/06/08","21:05:44",216666.000,"cc",28250.811,6.00,6,0.100,190663.000,0.200,22349.000,0.300,2101.000,0.500,1208.000,1.000,345.000,5.000,0
"03/06/08","21:05:50",168656.000,"cc",28339.818,6.00,6,0.100,148669.000,0.200,16794.000,0.300,1743.000,0.500,1132.000,1.000,318.000,5.000,0
"03/06/08","21:05:56",211533.000,"cc",28267.514,6.00,6,0.100,185516.000,0.200,22484.000,0.300,2001.000,0.500,1224.000,1.000,308.000,5.000,0
"03/06/08","21:06:02",157061.000,"cc",28324.576,6.00,6,0.100,138195.000,0.200,15637.000,0.300,1730.000,0.500,1196.000,1.000,303.000,5.000,0
"03/06/08","21:06:08",188308.000,"cc",28318.924,6.00,6,0.100,165628.000,0.200,19242.000,0.300,1889.000,0.500,1210.000,1.000,339.000,5.000,0
"03/06/08","21:06:14",152043.000,"cc",28291.666,6.00,6,0.100,133901.000,0.200,15064.000,0.300,1645.000,0.500,1134.000,1.000,299.000,5.000,0
"03/06/08","21:06:20",171925.000,"cc",28385.586,6.00,6,0.100,151207.000,0.200,17285.000,0.300,1850.000,0.500,1231.000,1.000,352.000,5.000,0
"03/06/08","21:06:26",119083.000,"cc",28343.457,6.00,6,0.100,104853.000,0.200,11337.000,0.300,1511.000,0.500,1069.000,1.000,313.000,5.000,0
"03/06/08","21:06:32",197257.000,"cc",28316.080,6.00,6,0.100,172138.000,0.200,21826.000,0.300,1870.000,0.500,1119.000,1.000,304.000,5.000,0
"03/06/08","21:06:38",168307.000,"cc",28294.520,6.00,6,0.100,147490.000,0.200,17515.000,0.300,1778.000,0.500,1215.000,1.000,309.000,5.000,0
"03/06/08","21:06:44",204927.000,"cc",28315.955,6.00,6,0.100,179497.000,0.200,21750.000,0.300,2059.000,0.500,1228.000,1.000,393.000,5.000,0
"03/06/08","21:06:50",210457.000,"cc",28303.346,6.00,6,0.100,184750.000,0.200,22182.000,0.300,1940.000,0.500,1241.000,1.000,344.000,5.000,0
"03/06/08","21:06:56",215674.000,"cc",28381.352,6.00,6,0.100,189775.000,0.200,22645.000,0.300,1868.000,0.500,1064.000,1.000,322.000,5.000,0
"03/06/08","21:07:02",203398.000,"cc",28185.328,6.00,6,0.100,179039.000,0.200,21148.000,0.300,1816.000,0.500,1121.000,1.000,274.000,5.000,0
"03/06/08","21:07:08",195233.000,"cc",28284.986,6.00,6,0.100,171356.000,0.200,20564.000,0.300,1854.000,0.500,1131.000,1.000,328.000,5.000,0
"03/06/08","21:07:14",148784.000,"cc",28352.252,6.00,6,0.100,131073.000,0.200,14705.000,0.300,1610.000,0.500,1126.000,1.000,270.000,5.000,0
"03/06/08","21:07:20",135060.000,"cc",28275.662,6.00,6,0.100,119716.000,0.200,12625.000,0.300,1453.000,0.500,1022.000,1.000,244.000,5.000,0
"03/06/08","21:07:26",132200.000,"cc",28318.920,6.00,6,0.100,117081.000,0.200,12358.000,0.300,1479.000,0.500,1023.000,1.000,259.000,5.000,0
"03/06/08","21:07:32",174911.000,"cc",28365.516,6.00,6,0.100,154271.000,0.200,17409.000,0.300,1775.000,0.500,1165.000,1.000,291.000,5.000,0
"03/06/08","21:07:38",138437.000,"cc",28369.264,6.00,6,0.100,121920.000,0.200,13473.000,0.300,1551.000,0.500,1167.000,1.000,326.000,5.000,0
"03/06/08","21:07:44",185782.000,"cc",28278.795,6.00,6,0.100,164273.000,0.200,18551.000,0.300,1612.000,0.500,1066.000,1.000,280.000,5.000,0
"03/06/08","21:07:50",223483.000,"cc",28324.215,6.00,6,0.100,196883.000,0.200,23449.000,0.300,1772.000,0.500,1062.000,1.000,317.000,5.000,0
"03/06/08","21:07:56",215776.000,"cc",28317.273,6.00,6,0.100,190322.000,0.200,22305.000,0.300,1763.000,0.500,1097.000,1.000,289.000,5.000,0
"03/06/08","21:08:02",174496.000,"cc",28285.328,6.00,6,0.100,154292.000,0.200,17326.000,0.300,1572.000,0.500,1024.000,1.000,282.000,5.000,0
"03/06/08","21:08:08",153951.000,"cc",28377.758,6.00,6,0.100,136380.000,0.200,14609.000,0.300,1566.000,0.500,1098.000,1.000,298.000,5.000,0
"03/06/08","21:08:14",140667.000,"cc",28333.373,6.00,6,0.100,124177.000,0.200,13393.000,0.300,1560.000,0.500,1174.000,1.000,363.000,5.000,0
"03/06/08","21:08:20",109130.000,"cc",28231.928,6.00,6,0.100,96196.000,0.200,10062.000,0.300,1462.000,0.500,1120.000,1.000,290.000,5.000,0
"03/06/08","21:08:26",98389.000,"cc",28321.785,6.00,6,0.100,86784.000,0.200,8962.000,0.300,1307.000,0.500,1060.000,1.000,276.000,5.000,0
"03/06/08","21:08:32",116364.000,"cc",28315.619,6.00,6,0.100,102525.000,0.200,10900.000,0.300,1494.000,0.500,1156.000,1.000,289.000,5.000,0
"03/06/08","21:08:38",151235.000,"cc",28316.686,6.00,6,0.100,133806.000,0.200,14482.000,0.300,1516.000,0.500,1126.000,1.000,305.000,5.000,0
"03/06/08","21:08:44",287301.000,"cc",28300.670,6.00,6,0.100,251355.000,0.200,32251.000,0.300,2164.000,0.500,1183.000,1.000,348.000,5.000,0
"03/06/08","21:08:50",156573.000,"cc",28272.799,6.00,6,0.100,138440.000,0.200,15003.000,0.300,1646.000,0.500,1136.000,1.000,348.000,5.000,0
"03/06/08","21:08:56",153269.000,"cc",28345.123,6.00,6,0.100,135734.000,0.200,14486.000,0.300,1615.000,0.500,1102.000,1.000,332.000,5.000,0
"03/06/08","21:09:02",172259.000,"cc",28359.029,6.00,6,0.100,152352.000,0.200,16816.000,0.300,1668.000,0.500,1089.000,1.000,334.000,5.000,0
"03/06/08","21:09:08",147909.000,"cc",28326.361,6.00,6,0.100,130831.000,0.200,14133.000,0.300,1611.000,0.500,1053.000,1.000,281.000,5.000,0
"03/06/08","21:09:14",223305.000,"cc",28338.045,6.00,6,0.100,196382.000,0.200,23388.000,0.300,1967.000,0.500,1227.000,1.000,341.000,5.000,0
"03/06/08","21:09:20",170592.000,"cc",28285.795,6.00,6,0.100,151114.000,0.200,16587.000,0.300,1569.000,0.500,1031.000,1.000,291.000,5.000,0
"03/06/08","21:09:26",131977.000,"cc",28334.340,6.00,6,0.100,116794.000,0.200,12507.000,0.300,1438.000,0.500,962.000,1.000,276.000,5.000,0
"03/06/08","21:09:32",187733.000,"cc",28336.078,6.00,6,0.100,165739.000,0.200,19039.000,0.300,1667.000,0.500,996.000,1.000,292.000,5.000,0
"03/06/08","21:09:38",183009.000,"cc",28325.975,6.00,6,0.100,161611.000,0.200,18498.000,0.300,1597.000,0.500,1034.000,1.000,269.000,5.000,0
"03/06/08","21:09:44",186909.000,"cc",28265.111,6.00,6,0.100,164907.000,0.200,19131.000,0.300,1637.000,0.500,957.000,1.000,277.000,5.000,0
"03/06/08","21:09:50",190985.000,"cc",28336.072,6.00,6,0.100,168681.000,0.200,19267.000,0.300,1742.000,0.500,998.000,1.000,297.000,5.000,0
"03/06/08","21:09:56",168209.000,"cc",28306.475,6.00,6,0.100,149094.000,0.200,16415.000,0.300,1573.000,0.500,891.000,1.000,236.000,5.000,0
"03/06/08","21:10:02",142710.000,"cc",28310.748,6.00,6,0.100,126367.000,0.200,13812.000,0.300,1380.000,0.500,894.000,1.000,257.000,5.000,0
"03/06/08","21:10:08",125718.000,"cc",28279.268,6.00,6,0.100,111434.000,0.200,11916.000,0.300,1256.000,0.500,916.000,1.000,196.000,5.000,0
"03/06/08","21:10:14",213318.000,"cc",28328.940,6.00,6,0.100,188873.000,0.200,21726.000,0.300,1599.000,0.500,909.000,1.000,211.000,5.000,0
"03/06/08","21:10:20",196189.000,"cc",28312.654,6.00,6,0.100,174314.000,0.200,19221.000,0.300,1487.000,0.500,923.000,1.000,244.000,5.000,0
"03/06/08","21:10:26",183117.000,"cc",28311.190,6.00,6,0.100,162949.000,0.200,17431.000,0.300,1504.000,0.500,991.000,1.000,242.000,5.000,0
"03/06/08","21:10:32",191284.000,"cc",28350.039,6.00,6,0.100,169329.000,0.200,19091.000,0.300,1573.000,0.500,1035.000,1.000,256.000,5.000,0
"03/06/08","21:10:38",227131.000,"cc",28315.723,6.00,6,0.100,200600.000,0.200,23571.000,0.300,1705.000,0.500,1022.000,1.000,233.000,5.000,0
"03/06/08","21:10:44",222348.000,"cc",28283.289,6.00,6,0.100,196556.000,0.200,22750.000,0.300,1713.000,0.500,1054.000,1.000,275.000,5.000,0
"03/06/08","21:10:50",203701.000,"cc",28327.754,6.00,6,0.100,180784.000,0.200,20112.000,0.300,1561.000,0.500,957.000,1.000,287.000,5.000,0
"03/06/08","21:10:56",139632.000,"cc",28362.768,6.00,6,0.100,124191.000,0.200,12789.000,0.300,1402.000,0.500,974.000,1.000,276.000,5.000,0
"03/06/08","21:11:02",148651.000,"cc",28298.949,6.00,6,0.100,132220.000,0.200,13861.000,0.300,1327.000,0.500,995.000,1.000,248.000,5.000,0
"03/06/08","21:11:08",178955.000,"cc",28262.988,6.00,6,0.100,159168.000,0.200,17136.000,0.300,1443.000,0.500,964.000,1.000,244.000,5.000,0
"03/06/08","21:11:14",147136.000,"cc",28294.565,6.00,6,0.100,131244.000,0.200,13354.000,0.300,1368.000,0.500,905.000,1.000,265.000,5.000,0
"03/06/08","21:11:20",216478.000,"cc",28335.162,6.00,6,0.100,192155.000,0.200,21499.000,0.300,1602.000,0.500,957.000,1.000,265.000,5.000,0
"03/06/08","21:11:26",96472.000,"cc",28318.014,6.00,6,0.100,85939.000,0.200,8204.000,0.300,1215.000,0.500,904.000,1.000,210.000,5.000,0
"03/06/08","21:11:32",210272.000,"cc",28351.297,6.00,6,0.100,185143.000,0.200,22126.000,0.300,1671.000,0.500,1031.000,1.000,301.000,5.000,0
"03/06/08","21:11:38",211005.000,"cc",28310.941,6.00,6,0.100,187245.000,0.200,20814.000,0.300,1674.000,0.500,1007.000,1.000,265.000,5.000,0
"03/06/08","21:11:44",218862.000,"cc",28322.002,6.00,6,0.100,193872.000,0.200,21894.000,0.300,1770.000,0.500,1030.000,1.000,296.000,5.000,0
"03/06/08","21:11:50",175431.000,"cc",28342.457,6.00,6,0.100,155565.000,0.200,16890.000,0.300,1625.000,0.500,1084.000,1.000,267.000,5.000,0
"03/06/08","21:11:56",153391.000,"cc",28311.953,6.00,6,0.100,136371.000,0.200,14320.000,0.300,1522.000,0.500,908.000,1.000,270.000,5.000,0
"03/06/08","21:12:02",124907.000,"cc",28268.637,6.00,6,0.100,110776.000,0.200,11499.000,0.300,1359.000,0.500,988.000,1.000,285.000,5.000,0
"03/06/08","21:12:08",251072.000,"cc",28322.025,6.00,6,0.100,219446.000,0.200,28290.000,0.300,1968.000,0.500,1087.000,1.000,281.000,5.000,0
"03/06/08","21:12:14",115529.000,"cc",28294.945,6.00,6,0.100,102204.000,0.200,10523.000,0.300,1393.000,0.500,1116.000,1.000,293.000,5.000,0
"03/06/08","21:12:20",182858.000,"cc",28337.916,6.00,6,0.100,161900.000,0.200,17845.000,0.300,1755.000,0.500,1048.000,1.000,310.000,5.000,0
"03/06/08","21:12:26",204971.000,"cc",28308.600,6.00,6,0.100,180861.000,0.200,20886.000,0.300,1849.000,0.500,1078.000,1.000,297.000,5.000,0
"03/06/08","21:12:32",229451.000,"cc",28321.910,6.00,6,0.100,202623.000,0.200,23484.000,0.300,1867.000,0.500,1169.000,1.000,308.000,5.000,0
"03/06/08","21:12:38",250352.000,"cc",28378.418,6.00,6,0.100,220394.000,0.200,26668.000,0.300,1933.000,0.500,1092.000,1.000,265.000,5.000,0
"03/06/08","21:12:44",240723.000,"cc",28345.301,6.00,6,0.100,211247.000,0.200,26039.000,0.300,2026.000,0.500,1132.000,1.000,279.000,5.000,0
"03/06/08","21:12:50",215871.000,"cc",28272.748,6.00,6,0.100,190095.000,0.200,22316.000,0.300,1968.000,0.500,1183.000,1.000,309.000,5.000,0
"03/06/08","21:12:56",216650.000,"cc",28307.877,6.00,6,0.100,191439.000,0.200,21914.000,0.300,1893.000,0.500,1102.000,1.000,302.000,5.000,0
"03/06/08","21:13:02",295225.000,"cc",28391.221,6.00,6,0.100,256694.000,0.200,34739.000,0.300,2337.000,0.500,1140.000,1.000,315.000,5.000,0
"03/06/08","21:13:08",203429.000,"cc",28282.926,6.00,6,0.100,178992.000,0.200,21094.000,0.300,1896.000,0.500,1176.000,1.000,271.000,5.000,0
"03/06/08","21:13:14",143461.000,"cc",28252.803,6.00,6,0.100,126378.000,0.200,14064.000,0.300,1601.000,0.500,1126.000,1.000,292.000,5.000,0
"03/06/08","21:13:20",137508.000,"cc",28265.342,6.00,6,0.100,121264.000,0.200,13329.000,0.300,1591.000,0.500,1025.000,1.000,299.000,5.000,0
"03/06/08","21:13:26",135079.000,"cc",28321.891,6.00,6,0.100,119405.000,0.200,12795.000,0.300,1538.000,0.500,1071.000,1.000,270.000,5.000,0
"03/06/08","21:13:32",178955.000,"cc",28330.762,6.00,6,0.100,157986.000,0.200,17989.000,0.300,1604.000,0.500,1096.000,1.000,280.000,5.000,0
"03/06/08","21:13:38",169780.000,"cc",28359.889,6.00,6,0.100,149899.000,0.200,16870.000,0.300,1623.000,0.500,1092.000,1.000,296.000,5.000,0
"03/06/08","21:13:44",233314.000,"cc",28334.518,6.00,6,0.100,205899.000,0.200,24118.000,0.300,1849.000,0.500,1115.000,1.000,333.000,5.000,0
"03/06/08","21:13:50",132555.000,"cc",28320.447,6.00,6,0.100,117656.000,0.200,12263.000,0.300,1401.000,0.500,971.000,1.000,264.000,5.000,0
"03/06/08","21:13:56",138357.000,"cc",28336.039,6.00,6,0.100,123094.000,0.200,12600.000,0.300,1361.000,0.500,1035.000,1.000,267.000,5.000,0
"03/06/08","21:14:02",183532.000,"cc",28310.336,6.00,6,0.100,163019.000,0.200,17637.000,0.300,1610.000,0.500,990.000,1.000,276.000,5.000,0
"03/06/08","21:14:08",224328.000,"cc",28228.660,6.00,6,0.100,198811.000,0.200,22516.000,0.300,1696.000,0.500,1051.000,1.000,254.000,5.000,0
"03/06/08","21:14:14",252191.000,"cc",28350.928,6.00,6,0.100,222391.000,0.200,26634.000,0.300,1840.000,0.500,1051.000,1.000,275.000,5.000,0
"03/06/08","21:14:20",212663.000,"cc",28334.408,6.00,6,0.100,188334.000,0.200,21267.000,0.300,1674.000,0.500,1083.000,1.000,305.000,5.000,0
"03/06/08","21:14:26",154156.000,"cc",28366.295,6.00,6,0.100,136907.000,0.200,14539.000,0.300,1393.000,0.500,1040.000,1.000,277.000,5.000,0
"03/06/08","21:14:32",138182.000,"cc",28277.412,6.00,6,0.100,122723.000,0.200,12753.000,0.300,1410.000,0.500,1039.000,1.000,257.000,5.000,0
"03/06/08","21:14:38",206190.000,"cc",28357.484,6.00,6,0.100,182489.000,0.200,20811.000,0.300,1674.000,0.500,954.000,1.000,262.000,5.000,0
"03/06/08","21:14:44",138534.000,"cc",28326.129,6.00,6,0.100,122927.000,0.200,12980.000,0.300,1393.000,0.500,959.000,1.000,275.000,5.000,0
"03/06/08","21:14:50",168703.000,"cc",28348.725,6.00,6,0.100,149899.000,0.200,16033.000,0.300,1478.000,0.500,1037.000,1.000,256.000,5.000,0
"03/06/08","21:14:56",263309.000,"cc",28321.240,6.00,6,0.100,232086.000,0.200,28049.000,0.300,1908.000,0.500,994.000,1.000,272.000,5.000,0
"03/06/08","21:15:02",209438.000,"cc",28227.363,6.00,6,0.100,186126.000,0.200,20441.000,0.300,1618.000,0.500,978.000,1.000,275.000,5.000,0
"03/06/08","21:15:08",213402.000,"cc",28355.086,6.00,6,0.100,189344.000,0.200,21156.000,0.300,1637.000,0.500,994.000,1.000,271.000,5.000,0
"03/06/08","21:15:14",154702.000,"cc",28343.867,6.00,6,0.100,137432.000,0.200,14618.000,0.300,1431.000,0.500,964.000,1.000,257.000,5.000,0
"03/06/08","21:15:20",145112.000,"cc",28326.611,6.00,6,0.100,128796.000,0.200,13767.000,0.300,1394.000,0.500,919.000,1.000,236.000,5.000,0
"03/06/08","21:15:26",242512.000,"cc",28340.576,6.00,6,0.100,213368.000,0.200,25967.000,0.300,1850.000,0.500,1020.000,1.000,307.000,5.000,0
"03/06/08","21:15:32",238383.000,"cc",28271.527,6.00,6,0.100,209356.000,0.200,25885.000,0.300,1856.000,0.500,1011.000,1.000,275.000,5.000,0
"03/06/08","21:15:38",206425.000,"cc",28273.338,6.00,6,0.100,182461.000,0.200,21117.000,0.300,1668.000,0.500,932.000,1.000,247.000,5.000,0
"03/06/08","21:15:44",372312.000,"cc",28344.566,6.00,6,0.100,318640.000,0.200,49375.000,0.300,2919.000,0.500,1102.000,1.000,276.000,5.000,0
"03/06/08","21:15:50",271649.000,"cc",28358.750,6.00,6,0.100,236981.000,0.200,31237.000,0.300,2170.000,0.500,1010.000,1.000,251.000,5.000,0
"03/06/08","21:15:56",145940.000,"cc",28337.039,6.00,6,0.100,59469.000,0.200,80721.000,0.300,4442.000,0.500,1054.000,1.000,254.000,5.000,0
"03/06/08","21:16:02",270107.000,"cc",28277.604,6.00,6,0.100,188805.000,0.200,75718.000,0.300,4280.000,0.500,1026.000,1.000,278.000,5.000,0